Flag for Barbados Weather past 2 weeks in Bridgetown, Barbados

Now
84 °F

Broken clouds.


Feels Like: 92 °F
Forecast: 80 / 85 °F
Wind: 26 mph from East

Location: Grantley Adams

Current Time: Jul 6, 2015 at 12:20:44 PM

Latest Report: Jul 6, 2015 at 11:00 AM


Visibility: N/A

Pressure: 30.01 "Hg

Humidity: 74%

Dew point: 75 °F

Location of BridgetownLocation

Historic Weather in Bridgetown — Graph

°F

Bridgetown temperature yesterday

Maximum temperature yesterday: 86 °F (at 10:00 AM)
Minimum temperature yesterday: 81 °F (at 12:00 AM)
Average temperature yesterday: 82 °F

Past Weeks' High & Low Weather Summary

 TemperatureHumidityPressure
High88 °F (Jun 24, 1:00 PM)94% (Jun 21, 3:00 PM)30.09 "Hg (Jun 21, 3:00 PM)
Low75 °F (Jun 21, 3:00 PM)62% (Jun 24, 1:00 PM)29.95 "Hg (Jul 2, 4:00 AM)
Average82 °F78%30.03 "Hg
* Reported Jun 21 12:00 Noon — Jul 6 11:00 AM, Bridgetown, Weather by CustomWeather, © 2015

Note: Actual official high and low records may vary slightly from our data, if they occured in-between our weather recording intervals... More about our weather records

Advertising

Bridgetown weather history for previous 24 hours

 ConditionsComfort  
Time TempWeatherWind HumidityBarometerVisibility
11:00 AM
Mon, Jul 6
84 °FBroken clouds.26 mph74%30.01 "HgN/A
10:00 AM84 °FBroken clouds.26 mph70%30.01 "HgN/A
9:00 AM84 °FPartly sunny.26 mph70%30.01 "HgN/A
8:00 AM81 °FBroken clouds.28 mph79%30.01 "HgN/A
7:00 AM82 °FPartly sunny.25 mph70%29.98 "HgN/A
6:00 AM81 °FBroken clouds.22 mph79%29.98 "HgN/A
5:00 AM81 °FPartly cloudy.22 mph79%29.95 "HgN/A
4:00 AM81 °FPartly cloudy.21 mph79%29.95 "HgN/A
3:00 AM81 °FPartly cloudy.24 mph79%29.95 "HgN/A
2:00 AM79 °FPartly cloudy.21 mph84%29.95 "HgN/A
1:00 AM81 °FPartly cloudy.18 mph79%29.98 "HgN/A
12:00 AM81 °FPartly cloudy.22 mph79%29.98 "HgN/A
11:00 PM
Sun, Jul 5
81 °FPassing clouds.22 mph79%30.01 "HgN/A
10:00 PM81 °FPartly cloudy.22 mph79%30.04 "HgN/A
9:00 PM81 °FPassing clouds.21 mph79%30.01 "HgN/A
8:00 PM81 °FPassing clouds.16 mph74%30.01 "HgN/A
7:00 PM81 °FPassing clouds.22 mph74%29.98 "HgN/A
6:00 PM82 °FPartly sunny.21 mph70%29.98 "HgN/A
5:00 PM82 °FPartly sunny.24 mph74%29.95 "HgN/A
4:00 PM84 °FBroken clouds.25 mph70%29.95 "HgN/A
3:00 PM86 °FPartly sunny.25 mph66%29.95 "HgN/A
2:00 PM86 °FPassing clouds.26 mph66%29.98 "HgN/A
1:00 PM86 °FScattered clouds.29 mph66%29.98 "HgN/A
12:00 PM86 °FScattered clouds.28 mph66%29.98 "HgN/A
Weather by CustomWeather, © 2015

See weather overviewHow to use our weather pages